Date String (YYYY-MM-DD hh:mm:ss) UTC,Instrument flags,Ambient pressure (hPa),Sample flow (lpm),Bypass flow (lpm),Sample temperature (°C),Ambient temperature (°C),ASC tube jacket temperature (°C),LED temperature (°C),Box temperature (°C),Sample RH (%),Span deviation,Mass concentration (μg/m³),Mass concentration (μg/m³),Mass concentration (μg/m³)
DateTimeUTC,F1_M11,P_M11,Q1_M11,Q2_M11,T1_M11,T2_M11,T3_M11,T4_M11,T5_M11,U1_M11,ZSPAN_M11,X0_M11,X2_M11,X1_M11
2022-05-23 11:00:00,,0824.4,5.00,0.00,29.0,28.0,00.0,38.0,30.8,19.8,0000.0,0000.01,0000.00,0000.00
2022-05-23 11:01:00,,0824.4,5.00,0.00,29.0,28.0,00.0,38.0,30.8,20.0,0000.0,0000.01,0000.01,0000.00
2022-05-23 11:02:00,,0824.4,5.00,0.00,29.0,28.0,00.0,38.0,30.8,20.0,0000.0,0000.01,0000.01,0000.00
2022-05-23 11:03:00,,0824.4,5.01,0.00,29.0,28.0,00.0,38.0,30.8,20.1,0000.0,0000.01,0000.01,0000.00
2022-05-23 11:04:00,,0824.4,5.01,0.00,29.0,28.0,00.0,38.0,30.8,20.0,0000.0,0000.01,0000.01,0000.00
2022-05-23 11:05:00,,0824.3,5.00,0.00,29.0,28.0,00.0,38.0,30.8,19.9,0000.0,0000.01,0000.01,0000.00
2022-05-23 11:06:00,,0824.3,5.00,0.00,29.0,28.0,00.0,38.0,30.8,19.8,0000.0,0000.01,0000.01,0000.00
2022-05-23 11:07:00,,0824.3,5.02,0.00,29.0,28.0,00.0,38.0,30.8,19.4,0000.0,0000.01,0000.00,0000.00
2022-05-23 11:08:00,,0824.3,5.00,0.00,29.0,28.0,00.0,38.0,30.8,19.3,0000.0,0000.01,0000.00,0000.00
2022-05-23 11:09:00,,0824.3,5.00,0.00,29.0,28.0,00.0,38.0,30.8,19.1,0000.0,0000.17,0000.01,0000.00
2022-05-23 11:10:00,,0824.3,5.00,0.00,29.0,28.0,00.0,38.0,30.8,18.6,0000.0,0000.41,0000.01,0000.00
2022-05-23 11:11:00,,0824.2,5.00,0.00,29.0,28.0,00.0,38.0,30.8,18.3,0000.0,0000.41,0000.01,0000.00
2022-05-23 11:12:00,,0824.3,5.01,0.00,29.0,28.0,00.0,38.0,30.8,18.1,0000.0,0000.41,0000.01,0000.00
2022-05-23 11:13:00,,0824.3,5.01,0.00,29.0,28.0,00.0,38.0,30.8,17.6,0000.0,0000.41,0000.01,0000.00
2022-05-23 11:14:00,,0824.3,4.99,0.00,29.0,28.0,00.0,38.0,30.8,17.3,0000.0,0000.41,0000.01,0000.00
2022-05-23 11:15:00,,0824.3,5.00,0.00,29.0,28.0,00.0,38.0,30.8,17.4,0000.0,0000.41,0000.01,0000.00
2022-05-23 11:16:00,,0824.3,5.00,0.00,29.0,28.0,00.0,38.0,30.8,17.7,0000.0,0000.41,0000.01,0000.00
2022-05-23 11:17:00,,0824.3,5.00,0.00,29.0,28.0,00.0,38.0,30.8,17.9,0000.0,0000.41,0000.01,0000.00
2022-05-23 11:18:00,,0824.3,4.99,0.00,29.0,28.0,00.0,38.0,30.8,17.8,0000.0,0000.41,0000.01,0000.00
2022-05-23 11:19:00,,0824.3,5.00,0.00,29.0,28.0,00.0,38.0,30.8,17.6,0000.0,0000.41,0000.01,0000.00
2022-05-23 11:20:00,,0824.3,5.00,0.00,29.0,28.0,00.0,38.0,30.8,17.7,0000.0,0000.32,0000.01,0000.00
2022-05-23 11:21:00,,0824.3,5.00,0.00,29.0,28.0,00.0,38.0,30.8,17.6,0000.0,0000.01,0000.00,0000.00
2022-05-23 11:22:00,,0824.3,5.01,0.00,29.0,28.0,00.0,37.9,30.8,17.6,0000.0,0000.01,0000.00,0000.00
2022-05-23 11:23:00,,0824.3,5.00,0.00,29.0,28.0,00.0,37.9,30.8,17.8,0000.0,0000.00,0000.00,0000.00
2022-05-23 11:24:00,,0824.3,5.00,0.00,29.0,28.0,00.0,37.9,30.8,17.8,0000.0,0000.00,0000.00,0000.00
2022-05-23 11:25:00,,0824.3,5.00,0.00,29.0,28.0,00.0,37.9,30.8,17.5,0000.0,0000.00,0000.00,0000.00
2022-05-23 11:26:00,,0824.4,5.00,0.00,29.0,28.0,00.0,37.9,30.8,17.4,0000.0,0000.00,0000.00,0000.00
2022-05-23 11:27:00,,0824.3,4.99,0.00,29.0,27.9,00.0,37.9,30.8,17.2,0000.0,0000.00,0000.00,0000.00
2022-05-23 11:28:00,,0824.3,5.00,0.00,29.0,27.9,00.0,37.9,30.8,16.9,0000.0,0000.00,0000.00,0000.00
2022-05-23 11:29:00,,0824.3,5.01,0.00,29.0,27.9,00.0,37.9,30.8,16.9,0000.0,0000.03,0000.02,0000.00
2022-05-23 11:30:00,,0824.3,5.01,0.00,29.0,27.9,00.0,37.9,30.8,17.1,0000.0,0000.03,0000.02,0000.00
2022-05-23 11:31:00,,0824.3,5.00,0.00,29.0,27.9,00.0,37.9,30.8,17.4,0000.0,0000.03,0000.02,0000.00
2022-05-23 11:32:00,,0824.3,5.00,0.00,29.0,27.9,00.0,37.9,30.8,17.4,0000.0,0000.03,0000.02,0000.00
2022-05-23 11:33:00,,0824.3,4.99,0.00,29.0,27.9,00.0,37.9,30.8,17.6,0000.0,0000.03,0000.02,0000.00
2022-05-23 11:34:00,,0824.3,5.00,0.00,29.0,27.9,00.0,37.9,30.8,17.8,0000.0,0000.03,0000.02,0000.00
2022-05-23 11:35:00,,0824.3,5.00,0.00,29.0,27.9,00.0,37.9,30.8,17.8,0000.0,0000.03,0000.02,0000.00
2022-05-23 11:36:00,,0824.3,5.00,0.00,28.9,27.9,00.0,37.9,30.8,17.7,0000.0,0000.07,0000.03,0000.00
2022-05-23 11:37:00,,0824.3,5.00,0.00,28.9,27.8,00.0,37.9,30.7,17.6,0000.0,0000.08,0000.03,0000.00
2022-05-23 11:38:00,,0824.3,4.98,0.00,28.9,27.8,00.0,37.9,30.7,17.6,0000.0,0000.08,0000.03,0000.00
2022-05-23 11:39:00,,0824.2,5.01,0.00,28.9,27.8,00.0,37.9,30.7,17.5,0000.0,0000.08,0000.04,0000.00
2022-05-23 11:40:00,,0824.1,5.00,0.00,28.9,27.8,00.0,37.9,30.7,17.4,0000.0,0000.05,0000.02,0000.00
2022-05-23 11:41:00,,0824.1,5.00,0.00,28.9,27.8,00.0,37.9,30.7,17.4,0000.0,0000.05,0000.02,0000.00
2022-05-23 11:42:00,,0824.0,5.00,0.00,28.9,27.8,00.0,37.9,30.7,17.5,0000.0,0000.05,0000.02,0000.00
2022-05-23 11:43:00,,0824.0,5.00,0.00,28.9,27.8,00.0,37.9,30.7,17.5,0000.0,0000.05,0000.02,0000.00
2022-05-23 11:44:00,,0824.1,5.00,0.00,28.9,27.8,00.0,37.9,30.7,17.6,0000.0,0000.05,0000.02,0000.00
2022-05-23 11:45:00,,0824.0,5.00,0.00,28.9,27.8,00.0,37.9,30.7,17.5,0000.0,0000.05,0000.02,0000.00
2022-05-23 11:46:00,,0824.1,4.99,0.00,28.9,27.8,00.0,37.9,30.7,17.6,0000.0,0000.05,0000.02,0000.00
2022-05-23 11:47:00,,0824.1,5.01,0.00,28.9,27.7,00.0,37.9,30.7,17.7,0000.0,0000.02,0000.01,0000.00
2022-05-23 11:48:00,,0824.1,5.00,0.00,28.9,27.7,00.0,37.9,30.6,17.7,0000.0,0000.03,0000.01,0000.00
2022-05-23 11:49:00,,0824.1,5.00,0.00,28.9,27.7,00.0,37.9,30.6,17.7,0000.0,0000.05,0000.02,0000.00
2022-05-23 11:50:00,,0824.1,5.00,0.00,28.8,27.7,00.0,37.8,30.6,17.8,0000.0,0000.05,0000.02,0000.00
2022-05-23 11:51:00,,0824.1,5.00,0.00,28.8,27.7,00.0,37.8,30.6,17.9,0000.0,0000.05,0000.02,0000.00
2022-05-23 11:52:00,,0824.1,5.00,0.00,28.8,27.7,00.0,37.8,30.6,17.9,0000.0,0000.05,0000.02,0000.00
2022-05-23 11:53:00,,0824.1,5.00,0.00,28.8,27.7,00.0,37.8,30.6,17.9,0000.0,0000.05,0000.02,0000.00
2022-05-23 11:54:00,,0824.1,4.99,0.00,28.8,27.7,00.0,37.8,30.6,18.0,0000.0,0000.05,0000.02,0000.00
2022-05-23 11:55:00,,0824.0,5.01,0.00,28.8,27.7,00.0,37.8,30.6,18.0,0000.0,0000.05,0000.02,0000.00
2022-05-23 11:56:00,,0824.1,5.00,0.00,28.8,27.7,00.0,37.8,30.6,17.9,0000.0,0000.05,0000.02,0000.01
2022-05-23 11:57:00,,0824.1,4.99,0.00,28.8,27.7,00.0,37.8,30.6,17.9,0000.0,0000.05,0000.02,0000.00
2022-05-23 11:58:00,,0824.1,4.99,0.00,28.8,27.7,00.0,37.8,30.6,18.0,0000.0,0000.05,0000.02,0000.00
2022-05-23 11:59:00,,0824.1,5.00,0.00,28.8,27.6,00.0,37.8,30.6,18.1,0000.0,0000.03,0000.01,0000.00
